TimeEDT,TemperatureF,Dew PointF,Humidity,Sea Level PressureIn,VisibilityMPH,Wind Direction,Wind SpeedMPH,Gust SpeedMPH,PrecipitationIn,Events,Conditions,WindDirDegrees,DateUTC
12:54 AM,53.1,35.1,50,30.19,10.0,Calm,Calm,-,N/A,,Clear,0,2013-05-06 04:54:00
1:54 AM,48.0,37.0,66,30.19,10.0,Calm,Calm,-,N/A,,Clear,0,2013-05-06 05:54:00
2:54 AM,45.0,36.0,71,30.19,10.0,Calm,Calm,-,N/A,,Clear,0,2013-05-06 06:54:00
3:54 AM,44.1,36.0,73,30.19,10.0,Calm,Calm,-,N/A,,Clear,0,2013-05-06 07:54:00
4:54 AM,41.0,35.1,79,30.20,10.0,Calm,Calm,-,N/A,,Clear,0,2013-05-06 08:54:00
5:54 AM,39.0,34.0,82,30.21,10.0,Calm,Calm,-,N/A,,Clear,0,2013-05-06 09:54:00
6:54 AM,43.0,37.9,82,30.23,10.0,Calm,Calm,-,N/A,,Clear,0,2013-05-06 10:54:00
7:54 AM,50.0,37.9,63,30.23,10.0,Calm,Calm,-,N/A,,Clear,0,2013-05-06 11:54:00
8:54 AM,57.9,37.9,47,30.22,10.0,South,3.5,-,N/A,,Clear,170,2013-05-06 12:54:00
9:54 AM,64.9,37.9,37,30.21,10.0,SSE,3.5,-,N/A,,Clear,160,2013-05-06 13:54:00
10:54 AM,69.1,34.0,27,30.19,10.0,South,3.5,-,N/A,,Clear,180,2013-05-06 14:54:00
11:54 AM,73.9,36.0,25,30.17,10.0,Calm,Calm,-,N/A,,Clear,0,2013-05-06 15:54:00
12:54 PM,75.9,34.0,22,30.15,10.0,Variable,3.5,-,N/A,,Clear,0,2013-05-06 16:54:00
1:54 PM,78.1,33.1,19,30.13,10.0,NNW,3.5,-,N/A,,Clear,340,2013-05-06 17:54:00
2:54 PM,79.0,28.0,15,30.11,10.0,Variable,5.8,-,N/A,,Clear,0,2013-05-06 18:54:00
3:54 PM,80.1,28.9,15,30.09,10.0,SSW,9.2,-,N/A,,Clear,200,2013-05-06 19:54:00
4:54 PM,79.0,30.0,17,30.07,10.0,Variable,6.9,-,N/A,,Clear,0,2013-05-06 20:54:00
5:54 PM,78.1,28.9,17,30.06,10.0,SW,4.6,-,N/A,,Clear,220,2013-05-06 21:54:00
6:54 PM,73.9,25.0,16,30.06,10.0,SSE,6.9,-,N/A,,Clear,150,2013-05-06 22:54:00
7:54 PM,69.1,28.0,22,30.06,10.0,Calm,Calm,-,N/A,,Clear,0,2013-05-06 23:54:00
8:54 PM,60.1,33.1,36,30.08,10.0,Calm,Calm,-,N/A,,Clear,0,2013-05-07 00:54:00
9:54 PM,57.9,32.0,37,30.10,10.0,South,3.5,-,N/A,,Clear,180,2013-05-07 01:54:00
10:54 PM,55.0,36.0,49,30.11,10.0,South,4.6,-,N/A,,Clear,190,2013-05-07 02:54:00
11:54 PM,50.0,36.0,59,30.12,10.0,Variable,3.5,-,N/A,,Clear,0,2013-05-07 03:54:00